| time (UTC) | temp F | wind direction | speed MPH | gust MPH | rain 1hr in | rain 24hr in | rain mn in | humidity % | barometer mb |
| 20260502203149 | 54 | 135 | 0.0 | 0.0 | 0.00 | 0.00 | 0.00 | 55 | 1021.7 |
| 20260502202643 | 53 | 128 | 0.0 | 2.0 | 0.00 | 0.00 | 0.00 | 55 | 1021.8 |
| 20260502202141 | 53 | 143 | 0.0 | 0.0 | 0.00 | 0.00 | 0.00 | 54 | 1021.8 |
| 20260502201638 | 53 | 134 | 0.0 | 1.0 | 0.00 | 0.00 | 0.00 | 54 | 1021.9 |
| 20260502201134 | 53 | 138 | 0.0 | 0.0 | 0.00 | 0.00 | 0.00 | 54 | 1021.9 |
| 20260502200630 | 53 | 141 | 0.0 | 1.0 | 0.00 | 0.00 | 0.00 | 54 | 1022.2 |
| 20260502200127 | 53 | 155 | 1.0 | 1.0 | 0.00 | 0.00 | 0.00 | 54 | 1022.1 |
| 20260502195626 | 53 | 137 | 0.0 | 0.0 | 0.00 | 0.00 | 0.00 | 53 | 1022.1 |
| 20260502195121 | 53 | 136 | 0.0 | 1.0 | 0.00 | 0.00 | 0.00 | 53 | 1022.1 |
| 20260502194618 | 53 | 139 | 0.0 | 1.0 | 0.00 | 0.00 | 0.00 | 53 | 1022.1 |
| 20260502194114 | 54 | 145 | 1.0 | 1.0 | 0.00 | 0.00 | 0.00 | 53 | 1021.9 |
| 20260502193611 | 54 | 142 | 0.0 | 0.0 | 0.00 | 0.00 | 0.00 | 52 | 1022.1 |
| 20260502193108 | 55 | 142 | 0.0 | 2.0 | 0.00 | 0.00 | 0.00 | 51 | 1022.1 |
| 20260502192604 | 55 | 140 | 1.0 | 1.0 | 0.00 | 0.00 | 0.00 | 51 | 1022.0 |
| 20260502192102 | 55 | 148 | 1.0 | 3.0 | 0.00 | 0.00 | 0.00 | 51 | 1021.9 |
| 20260502191558 | 55 | 138 | 0.0 | 2.0 | 0.00 | 0.00 | 0.00 | 52 | 1022.1 |
| 20260502191056 | 55 | 138 | 0.0 | 1.0 | 0.00 | 0.00 | 0.00 | 51 | 1021.9 |
| 20260502190553 | 55 | 144 | 0.0 | 2.0 | 0.00 | 0.00 | 0.00 | 51 | 1021.9 |
| 20260502190050 | 55 | 140 | 0.0 | 1.0 | 0.00 | 0.00 | 0.00 | 50 | 1022.1 |
| 20260502185544 | 56 | 134 | 0.0 | 1.0 | 0.00 | 0.00 | 0.00 | 51 | 1022.1 |
| 20260502185042 | 57 | 130 | 1.0 | 1.0 | 0.00 | 0.00 | 0.00 | 51 | 1022.0 |
| 20260502184538 | 58 | 142 | 2.0 | 3.0 | 0.00 | 0.00 | 0.00 | 52 | 1022.1 |
| 20260502184034 | 57 | 151 | 2.0 | 2.0 | 0.00 | 0.00 | 0.00 | 53 | 1022.2 |
| 20260502183530 | 55 | 146 | 1.0 | 3.0 | 0.00 | 0.00 | 0.00 | 54 | 1022.4 |
| 20260502183026 | 54 | 141 | 1.0 | 1.0 | 0.00 | 0.00 | 0.00 | 54 | 1022.4 |
| 20260502182521 | 54 | 151 | 0.0 | 1.0 | 0.00 | 0.00 | 0.00 | 54 | 1022.4 |
| 20260502182018 | 54 | 140 | 0.0 | 2.0 | 0.00 | 0.00 | 0.00 | 53 | 1022.7 |
| 20260502181516 | 55 | 130 | 0.0 | 1.0 | 0.00 | 0.00 | 0.00 | 54 | 1022.4 |
| 20260502181015 | 55 | 148 | 2.0 | 5.0 | 0.00 | 0.00 | 0.00 | 53 | 1022.4 |
| 20260502180511 | 55 | 126 | 0.0 | 3.0 | 0.00 | 0.00 | 0.00 | 54 | 1022.6 |
| 20260502170430 | 54 | 141 | 0.0 | 1.0 | 0.00 | 0.00 | 0.00 | 56 | 1022.8 |
| 20260502163913 | 54 | 145 | 0.0 | 0.0 | 0.00 | 0.00 | 0.00 | 57 | 1023.0 |
| 20260502163409 | 55 | 164 | 0.0 | 2.0 | 0.00 | 0.00 | 0.00 | 57 | 1023.0 |
| 20260502162908 | 55 | 129 | 1.0 | 1.0 | 0.00 | 0.00 | 0.00 | 57 | 1023.3 |
| 20260502162404 | 54 | 140 | 0.0 | 2.0 | 0.00 | 0.00 | 0.00 | 58 | 1023.1 |
| 20260502161901 | 54 | 131 | 0.0 | 1.0 | 0.00 | 0.00 | 0.00 | 57 | 1023.3 |
| 20260502161357 | 55 | 132 | 0.0 | 1.0 | 0.00 | 0.00 | 0.00 | 57 | 1023.4 |
| 20260502160855 | 57 | 80 | 0.0 | 2.0 | 0.00 | 0.00 | 0.00 | 58 | 1023.0 |
| 20260502160353 | 56 | 139 | 0.0 | 0.0 | 0.00 | 0.00 | 0.00 | 59 | 1023.0 |
| 20260502152328 | 54 | 151 | 2.0 | 2.0 | 0.00 | 0.00 | 0.00 | 63 | 1023.3 |
| 20260502151826 | 55 | 164 | 2.0 | 2.0 | 0.00 | 0.00 | 0.00 | 64 | 1023.4 |
| 20260502151322 | 54 | 153 | 2.0 | 3.0 | 0.00 | 0.00 | 0.00 | 66 | 1023.3 |
| 20260502150820 | 53 | 128 | 0.0 | 1.0 | 0.00 | 0.00 | 0.00 | 67 | 1023.4 |
| 20260502150316 | 53 | 134 | 0.0 | 1.0 | 0.00 | 0.00 | 0.00 | 68 | 1023.4 |
| 20260502130704 | 45 | 154 | 1.0 | 1.0 | 0.00 | 0.00 | 0.00 | 92 | 1023.3 |
| 20260502130202 | 45 | 152 | 0.0 | 1.0 | 0.00 | 0.00 | 0.00 | 92 | 1023.1 |
| 20260502123648 | 44 | 151 | 0.0 | 0.0 | 0.00 | 0.00 | 0.00 | 94 | 1022.8 |
| 20260502123145 | 44 | 151 | 0.0 | 0.0 | 0.00 | 0.00 | 0.00 | 94 | 1022.8 |
| 20260502122641 | 43 | 151 | 0.0 | 0.0 | 0.00 | 0.00 | 0.00 | 94 | 1023.0 |
| 20260502122138 | 43 | 151 | 0.0 | 0.0 | 0.00 | 0.00 | 0.00 | 94 | 1022.8 |
| 20260502121636 | 43 | 151 | 0.0 | 0.0 | 0.00 | 0.00 | 0.00 | 95 | 1022.9 |
| 20260502121133 | 43 | 151 | 0.0 | 0.0 | 0.00 | 0.00 | 0.00 | 95 | 1022.7 |
| 20260502120629 | 43 | 151 | 0.0 | 0.0 | 0.00 | 0.00 | 0.00 | 95 | 1022.9 |
| 20260502120126 | 42 | 151 | 0.0 | 0.0 | 0.00 | 0.00 | 0.00 | 95 | 1022.7 |
| 20260502115624 | 42 | 151 | 0.0 | 0.0 | 0.00 | 0.00 | 0.00 | 95 | 1022.6 |
| 20260502115120 | 42 | 151 | 0.0 | 0.0 | 0.00 | 0.00 | 0.00 | 95 | 1022.6 |
| 20260502114616 | 42 | 151 | 0.0 | 0.0 | 0.00 | 0.00 | 0.00 | 95 | 1022.5 |
| 20260502114114 | 41 | 151 | 0.0 | 0.0 | 0.00 | 0.00 | 0.00 | 95 | 1023.0 |
| 20260502113611 | 41 | 153 | 0.0 | 0.0 | 0.00 | 0.00 | 0.00 | 95 | 1022.6 |
| 20260502113109 | 41 | 150 | 0.0 | 0.0 | 0.00 | 0.00 | 0.00 | 94 | 1022.4 |
| 20260502112607 | 41 | 150 | 0.0 | 0.0 | 0.00 | 0.00 | 0.00 | 94 | 1022.2 |
| 20260502112104 | 40 | 150 | 0.0 | 0.0 | 0.00 | 0.00 | 0.00 | 94 | 1022.3 |
| 20260502111602 | 40 | 150 | 0.0 | 0.0 | 0.00 | 0.00 | 0.00 | 94 | 1022.3 |
| 20260502111059 | 40 | 150 | 0.0 | 0.0 | 0.00 | 0.00 | 0.00 | 94 | 1022.3 |
| 20260502110556 | 39 | 150 | 0.0 | 0.0 | 0.00 | 0.00 | 0.00 | 94 | 1022.2 |
| 20260502110054 | 39 | 150 | 0.0 | 0.0 | 0.00 | 0.00 | 0.00 | 94 | 1022.1 |
| 20260502105551 | 39 | 150 | 0.0 | 0.0 | 0.00 | 0.00 | 0.00 | 94 | 1021.9 |
| 20260502105048 | 39 | 150 | 0.0 | 0.0 | 0.00 | 0.00 | 0.00 | 94 | 1022.2 |
| 20260502104545 | 39 | 150 | 0.0 | 0.0 | 0.00 | 0.00 | 0.00 | 94 | 1021.9 |
| 20260502104043 | 39 | 150 | 0.0 | 0.0 | 0.00 | 0.00 | 0.00 | 94 | 1022.1 |
| 20260502103540 | 40 | 150 | 0.0 | 0.0 | 0.00 | 0.00 | 0.00 | 94 | 1022.0 |
| 20260502103038 | 40 | 150 | 0.0 | 0.0 | 0.00 | 0.00 | 0.00 | 94 | 1021.8 |
| 20260502102534 | 40 | 150 | 0.0 | 0.0 | 0.00 | 0.00 | 0.00 | 94 | 1021.9 |
| 20260502102031 | 39 | 150 | 0.0 | 0.0 | 0.00 | 0.00 | 0.00 | 94 | 1021.8 |
| 20260502101529 | 39 | 150 | 0.0 | 0.0 | 0.00 | 0.00 | 0.00 | 94 | 1022.2 |
| 20260502101027 | 40 | 150 | 0.0 | 0.0 | 0.00 | 0.00 | 0.00 | 94 | 1022.3 |
| 20260502100526 | 40 | 150 | 0.0 | 0.0 | 0.00 | 0.00 | 0.00 | 93 | 1022.0 |
| 20260502091500 | 40 | 150 | 0.0 | 0.0 | 0.00 | 0.00 | 0.00 | 93 | 1022.2 |
| 20260502090958 | 40 | 150 | 0.0 | 0.0 | 0.00 | 0.00 | 0.00 | 93 | 1022.0 |
| 20260502090454 | 40 | 150 | 0.0 | 0.0 | 0.00 | 0.00 | 0.00 | 93 | 1022.0 |
| 20260502071349 | 39 | 150 | 0.0 | 0.0 | 0.00 | 0.00 | 0.00 | 91 | 1021.5 |
| 20260502070847 | 39 | 150 | 0.0 | 0.0 | 0.00 | 0.00 | 0.00 | 90 | 1021.5 |
| 20260502070344 | 39 | 150 | 0.0 | 0.0 | 0.00 | 0.00 | 0.00 | 90 | 1021.5 |
| 20260502065843 | 39 | 150 | 0.0 | 0.0 | 0.00 | 0.00 | 0.00 | 90 | 1021.8 |
| 20260502065341 | 39 | 150 | 0.0 | 0.0 | 0.00 | 0.00 | 0.00 | 90 | 1021.8 |
| 20260502064839 | 39 | 150 | 0.0 | 0.0 | 0.00 | 0.00 | 0.00 | 90 | 1021.7 |
| 20260502064336 | 39 | 150 | 0.0 | 0.0 | 0.00 | 0.00 | 0.00 | 90 | 1022.0 |
| 20260502063833 | 39 | 150 | 0.0 | 0.0 | 0.00 | 0.00 | 0.00 | 90 | 1021.9 |
| 20260502063331 | 39 | 150 | 0.0 | 0.0 | 0.00 | 0.00 | 0.00 | 89 | 1022.0 |
| 20260502062828 | 39 | 150 | 0.0 | 0.0 | 0.00 | 0.00 | 0.00 | 89 | 1021.8 |
| 20260502062325 | 39 | 150 | 0.0 | 0.0 | 0.00 | 0.00 | 0.00 | 89 | 1022.1 |
| 20260502061824 | 39 | 150 | 0.0 | 0.0 | 0.00 | 0.00 | 0.00 | 89 | 1021.9 |
| 20260502061322 | 39 | 150 | 0.0 | 0.0 | 0.00 | 0.00 | 0.00 | 89 | 1022.0 |
| 20260502060817 | 39 | 150 | 0.0 | 0.0 | 0.00 | 0.00 | 0.00 | 89 | 1022.0 |
| 20260502060312 | 39 | 150 | 0.0 | 0.0 | 0.00 | 0.00 | 0.00 | 88 | 1022.0 |
| 20260502055810 | 39 | 150 | 0.0 | 0.0 | 0.00 | 0.00 | 0.00 | 88 | 1022.2 |
| 20260502055308 | 39 | 150 | 0.0 | 0.0 | 0.00 | 0.00 | 0.00 | 88 | 1022.2 |
| 20260502054808 | 39 | 150 | 0.0 | 0.0 | 0.00 | 0.00 | 0.00 | 88 | 1022.2 |
| 20260502054305 | 40 | 150 | 0.0 | 0.0 | 0.00 | 0.00 | 0.00 | 88 | 1022.3 |
| 20260502053802 | 40 | 150 | 0.0 | 0.0 | 0.00 | 0.00 | 0.00 | 87 | 1022.4 |
| 20260502053259 | 40 | 150 | 0.0 | 0.0 | 0.00 | 0.00 | 0.00 | 87 | 1022.0 |
| 20260502052756 | 40 | 150 | 0.0 | 0.0 | 0.00 | 0.00 | 0.00 | 87 | 1022.3 |
| 20260502052255 | 40 | 150 | 0.0 | 0.0 | 0.00 | 0.00 | 0.00 | 87 | 1022.3 |
| 20260502051752 | 40 | 150 | 0.0 | 0.0 | 0.00 | 0.00 | 0.00 | 87 | 1022.2 |
| 20260502051251 | 40 | 150 | 0.0 | 0.0 | 0.00 | 0.00 | 0.00 | 86 | 1022.2 |
| 20260502050746 | 40 | 150 | 0.0 | 0.0 | 0.00 | 0.00 | 0.00 | 86 | 1022.3 |
| 20260502050242 | 41 | 150 | 0.0 | 0.0 | 0.00 | 0.00 | 0.00 | 86 | 1022.2 |
| 20260502045740 | 41 | 150 | 0.0 | 0.0 | 0.00 | 0.00 | 0.00 | 86 | 1022.4 |
| 20260502045237 | 41 | 150 | 0.0 | 0.0 | 0.00 | 0.00 | 0.00 | 86 | 1022.3 |
| 20260502044733 | 41 | 150 | 0.0 | 0.0 | 0.00 | 0.00 | 0.00 | 85 | 1022.3 |
| 20260502044230 | 41 | 150 | 0.0 | 0.0 | 0.00 | 0.00 | 0.00 | 85 | 1022.2 |
| 20260502043727 | 42 | 150 | 0.0 | 0.0 | 0.00 | 0.00 | 0.00 | 85 | 1022.2 |
| 20260502043225 | 41 | 150 | 0.0 | 0.0 | 0.00 | 0.00 | 0.00 | 84 | 1022.3 |
| 20260502042724 | 41 | 150 | 0.0 | 0.0 | 0.00 | 0.00 | 0.00 | 84 | 1022.2 |
| 20260502042222 | 42 | 150 | 0.0 | 0.0 | 0.00 | 0.00 | 0.00 | 84 | 1022.3 |
| 20260502041719 | 42 | 150 | 0.0 | 0.0 | 0.00 | 0.00 | 0.00 | 83 | 1022.5 |
| 20260502041216 | 42 | 150 | 0.0 | 0.0 | 0.00 | 0.00 | 0.00 | 83 | 1022.3 |
| 20260502040713 | 42 | 150 | 0.0 | 0.0 | 0.00 | 0.00 | 0.00 | 83 | 1022.5 |
| 20260502040210 | 42 | 150 | 0.0 | 0.0 | 0.00 | 0.00 | 0.00 | 82 | 1022.6 |
| 20260502035706 | 42 | 150 | 0.0 | 0.0 | 0.00 | 0.00 | 0.00 | 82 | 1022.5 |
| 20260502035203 | 42 | 150 | 0.0 | 0.0 | 0.00 | 0.00 | 0.00 | 82 | 1022.6 |
| 20260502034700 | 42 | 150 | 0.0 | 0.0 | 0.00 | 0.00 | 0.00 | 81 | 1022.5 |
| 20260502034159 | 43 | 150 | 0.0 | 0.0 | 0.00 | 0.00 | 0.00 | 81 | 1022.7 |
| 20260502033656 | 43 | 150 | 0.0 | 0.0 | 0.00 | 0.00 | 0.00 | 80 | 1022.6 |
| 20260502033154 | 43 | 150 | 0.0 | 0.0 | 0.00 | 0.00 | 0.00 | 80 | 1022.5 |
| 20260502032650 | 43 | 150 | 0.0 | 0.0 | 0.00 | 0.00 | 0.00 | 79 | 1022.4 |
| 20260502032146 | 43 | 150 | 0.0 | 0.0 | 0.00 | 0.00 | 0.00 | 79 | 1022.4 |
| 20260502031644 | 43 | 150 | 0.0 | 0.0 | 0.00 | 0.00 | 0.00 | 78 | 1022.4 |
| 20260502031142 | 44 | 150 | 0.0 | 0.0 | 0.00 | 0.00 | 0.00 | 77 | 1022.4 |
| 20260502030641 | 44 | 150 | 0.0 | 0.0 | 0.00 | 0.00 | 0.00 | 77 | 1022.2 |
| 20260502030138 | 44 | 150 | 0.0 | 0.0 | 0.00 | 0.00 | 0.00 | 76 | 1022.4 |
| 20260502025635 | 44 | 150 | 0.0 | 0.0 | 0.00 | 0.00 | 0.00 | 75 | 1022.4 |
| 20260502025133 | 45 | 150 | 0.0 | 0.0 | 0.00 | 0.00 | 0.00 | 74 | 1022.2 |
| 20260502024631 | 45 | 150 | 0.0 | 0.0 | 0.00 | 0.00 | 0.00 | 74 | 1022.0 |
| 20260502024129 | 45 | 150 | 0.0 | 0.0 | 0.00 | 0.00 | 0.00 | 73 | 1022.3 |
| 20260502023627 | 45 | 150 | 0.0 | 0.0 | 0.00 | 0.00 | 0.00 | 73 | 1022.4 |
| 20260502023123 | 46 | 150 | 0.0 | 0.0 | 0.00 | 0.00 | 0.00 | 72 | 1022.3 |
| 20260502022620 | 46 | 150 | 0.0 | 0.0 | 0.00 | 0.00 | 0.00 | 72 | 1022.2 |
| 20260502022118 | 46 | 150 | 0.0 | 0.0 | 0.00 | 0.00 | 0.00 | 71 | 1022.3 |
| 20260502021615 | 46 | 150 | 0.0 | 0.0 | 0.00 | 0.00 | 0.00 | 70 | 1022.1 |
| 20260502021112 | 47 | 150 | 0.0 | 0.0 | 0.00 | 0.00 | 0.00 | 69 | 1022.2 |
| 20260502020610 | 47 | 150 | 0.0 | 0.0 | 0.00 | 0.00 | 0.00 | 68 | 1022.1 |
| 20260502020106 | 47 | 150 | 0.0 | 0.0 | 0.00 | 0.00 | 0.00 | 68 | 1021.9 |
| 20260502015604 | 47 | 150 | 0.0 | 0.0 | 0.00 | 0.00 | 0.00 | 67 | 1021.9 |
| 20260502015100 | 48 | 150 | 0.0 | 0.0 | 0.00 | 0.00 | 0.00 | 66 | 1021.6 |
| 20260502014557 | 48 | 150 | 0.0 | 0.0 | 0.00 | 0.00 | 0.00 | 65 | 1021.6 |
| 20260502014054 | 49 | 150 | 0.0 | 0.0 | 0.00 | 0.00 | 0.00 | 64 | 1021.6 |
| 20260502013549 | 49 | 150 | 0.0 | 0.0 | 0.00 | 0.00 | 0.00 | 63 | 1021.3 |
| 20260502013046 | 50 | 150 | 0.0 | 0.0 | 0.00 | 0.00 | 0.00 | 63 | 1021.1 |
| 20260502012543 | 50 | 150 | 0.0 | 0.0 | 0.00 | 0.00 | 0.00 | 61 | 1021.1 |
| 20260502012041 | 50 | 150 | 0.0 | 0.0 | 0.00 | 0.00 | 0.00 | 60 | 1021.0 |
| 20260502011537 | 51 | 150 | 0.0 | 0.0 | 0.00 | 0.00 | 0.00 | 59 | 1021.1 |
| 20260502011034 | 51 | 150 | 0.0 | 0.0 | 0.00 | 0.00 | 0.00 | 59 | 1020.8 |
| 20260502010532 | 52 | 150 | 0.0 | 0.0 | 0.00 | 0.00 | 0.00 | 58 | 1020.6 |
| 20260502010027 | 52 | 150 | 0.0 | 0.0 | 0.00 | 0.00 | 0.00 | 57 | 1020.7 |
| 20260502005526 | 52 | 150 | 0.0 | 0.0 | 0.00 | 0.00 | 0.00 | 57 | 1020.8 |
| 20260502005023 | 53 | 150 | 0.0 | 1.0 | 0.00 | 0.00 | 0.00 | 56 | 1020.8 |
| 20260502004518 | 53 | 150 | 0.0 | 1.0 | 0.00 | 0.00 | 0.00 | 56 | 1021.0 |
| 20260502004016 | 53 | 147 | 0.0 | 0.0 | 0.00 | 0.00 | 0.00 | 55 | 1020.7 |
| 20260502003514 | 54 | 147 | 0.0 | 0.0 | 0.00 | 0.00 | 0.00 | 54 | 1020.6 |
| 20260502003010 | 54 | 147 | 0.0 | 0.0 | 0.00 | 0.00 | 0.00 | 54 | 1020.5 |
| 20260502002507 | 54 | 146 | 0.0 | 1.0 | 0.00 | 0.00 | 0.00 | 53 | 1020.4 |
| 20260502002004 | 55 | 139 | 0.0 | 0.0 | 0.00 | 0.00 | 0.00 | 53 | 1020.4 |
| 20260502001501 | 55 | 132 | 0.0 | 1.0 | 0.00 | 0.00 | 0.00 | 52 | 1020.4 |
| 20260502000959 | 55 | 132 | 0.0 | 0.0 | 0.00 | 0.00 | 0.00 | 52 | 1020.0 |
| 20260502000457 | 55 | 132 | 0.0 | 0.0 | 0.00 | 0.00 | 0.00 | 52 | 1019.8 |
| 20260501235953 | 55 | 133 | 0.0 | 0.0 | 0.00 | 0.00 | 0.00 | 52 | 1019.7 |
| 20260501235449 | 55 | 144 | 0.0 | 1.0 | 0.00 | 0.00 | 0.00 | 52 | 1019.4 |
| 20260501234944 | 56 | 116 | 1.0 | 1.0 | 0.00 | 0.00 | 0.00 | 51 | 1019.4 |
| 20260501234441 | 56 | 108 | 0.0 | 1.0 | 0.00 | 0.00 | 0.00 | 51 | 1019.0 |
| 20260501233940 | 56 | 132 | 2.0 | 2.0 | 0.00 | 0.00 | 0.00 | 51 | 1019.2 |
| 20260501233437 | 56 | 133 | 0.0 | 2.0 | 0.00 | 0.00 | 0.00 | 51 | 1019.2 |
| 20260501232933 | 56 | 146 | 1.0 | 1.0 | 0.00 | 0.00 | 0.00 | 51 | 1019.5 |
| 20260501232430 | 56 | 135 | 0.0 | 1.0 | 0.00 | 0.00 | 0.00 | 50 | 1019.5 |
| 20260501231927 | 57 | 221 | 2.0 | 3.0 | 0.00 | 0.00 | 0.00 | 50 | 1019.5 |
| 20260501231426 | 57 | 213 | 1.0 | 3.0 | 0.00 | 0.00 | 0.00 | 50 | 1019.6 |
| 20260501230923 | 57 | 124 | 0.0 | 2.0 | 0.00 | 0.00 | 0.00 | 50 | 1019.7 |
| 20260501230422 | 57 | 135 | 0.0 | 2.0 | 0.00 | 0.00 | 0.00 | 50 | 1019.6 |
| 20260501225919 | 57 | 138 | 0.0 | 0.0 | 0.00 | 0.00 | 0.00 | 50 | 1019.7 |
| 20260501225416 | 57 | 146 | 0.0 | 1.0 | 0.00 | 0.00 | 0.00 | 50 | 1019.7 |
| 20260501224912 | 57 | 128 | 0.0 | 2.0 | 0.00 | 0.00 | 0.00 | 50 | 1019.7 |
| 20260501224410 | 57 | 138 | 1.0 | 2.0 | 0.00 | 0.00 | 0.00 | 50 | 1019.5 |
| 20260501223906 | 57 | 168 | 1.0 | 2.0 | 0.00 | 0.00 | 0.00 | 50 | 1019.5 |
| 20260501223403 | 57 | 126 | 0.0 | 1.0 | 0.00 | 0.00 | 0.00 | 50 | 1019.5 |
| 20260501222858 | 57 | 221 | 1.0 | 2.0 | 0.00 | 0.00 | 0.00 | 49 | 1019.5 |
| 20260501222355 | 57 | 121 | 1.0 | 2.0 | 0.00 | 0.00 | 0.00 | 49 | 1019.5 |
| 20260501221852 | 57 | 134 | 0.0 | 1.0 | 0.00 | 0.00 | 0.00 | 49 | 1019.4 |
| 20260501221350 | 58 | 139 | 2.0 | 2.0 | 0.00 | 0.00 | 0.00 | 49 | 1019.5 |
| 20260501220848 | 58 | 144 | 1.0 | 3.0 | 0.00 | 0.00 | 0.00 | 49 | 1019.4 |
| 20260501220344 | 57 | 278 | 2.0 | 5.0 | 0.00 | 0.00 | 0.00 | 49 | 1019.4 |
| 20260501215841 | 58 | 145 | 0.0 | 2.0 | 0.00 | 0.00 | 0.00 | 50 | 1019.5 |
| 20260501215337 | 58 | 141 | 1.0 | 1.0 | 0.00 | 0.00 | 0.00 | 49 | 1019.3 |
| 20260501214833 | 58 | 118 | 1.0 | 2.0 | 0.00 | 0.00 | 0.00 | 48 | 1019.4 |
| 20260501214328 | 59 | 129 | 1.0 | 3.0 | 0.00 | 0.00 | 0.00 | 48 | 1019.4 |
| 20260501213824 | 60 | 141 | 1.0 | 1.0 | 0.00 | 0.00 | 0.00 | 49 | 1019.2 |
| 20260501213321 | 59 | 141 | 1.0 | 5.0 | 0.00 | 0.00 | 0.00 | 50 | 1019.3 |
| 20260501212817 | 58 | 138 | 0.0 | 1.0 | 0.00 | 0.00 | 0.00 | 49 | 1019.3 |
| 20260501212314 | 59 | 130 | 2.0 | 2.0 | 0.00 | 0.00 | 0.00 | 48 | 1019.5 |
| 20260501211811 | 59 | 127 | 0.0 | 1.0 | 0.00 | 0.00 | 0.00 | 48 | 1019.4 |
| 20260501211308 | 60 | 97 | 3.0 | 7.0 | 0.00 | 0.00 | 0.00 | 48 | 1019.5 |
| 20260501210805 | 59 | 138 | 0.0 | 1.0 | 0.00 | 0.00 | 0.00 | 47 | 1019.4 |
| 20260501210302 | 60 | 119 | 0.0 | 3.0 | 0.00 | 0.00 | 0.00 | 46 | 1019.3 |
| 20260501205758 | 62 | 153 | 2.0 | 6.0 | 0.00 | 0.00 | 0.00 | 46 | 1019.5 |
| 20260501205255 | 62 | 141 | 2.0 | 2.0 | 0.00 | 0.00 | 0.00 | 47 | 1019.6 |
| 20260501204752 | 61 | 141 | 0.0 | 2.0 | 0.00 | 0.00 | 0.00 | 46 | 1019.5 |
| 20260501204249 | 60 | 120 | 2.0 | 5.0 | 0.00 | 0.00 | 0.00 | 47 | 1019.6 |
| 20260501203745 | 58 | 137 | 1.0 | 2.0 | 0.00 | 0.00 | 0.00 | 46 | 1019.5 |